Location: Lombard
(41.8800°N, 88.0080°W)
Time: 07:05:13
(UTC-05:00)

A-11 Canister half - Pass Details

Date: 02 May 2025
Orbit: 1514 x 1685 km, 47.2° (Epoch: 13 May)

Event Time Altitude Azimuth Distance (km) Brightness Sun altitude
Exits shadow 03:43:56 19° 187° (S) 3,054 10.1 -19.9°
Maximum altitude 03:49:43 36° 134° (SE) 2,216 9.8 -19.1°
Drops below altitude 10° 03:57:51 10° 72° (ENE) 3,681 12.0 -18.0°
Sets 04:01:10 0° 64° (ENE) 4,674 13.0 -17.5°
